This is the latest recevied weather packets stored in our database for station/object N3WMC. If no packets are shown the sender has not sent any weather packets the latest 10 day(s).
| Time | Temp. | Humidity | Pressure | Rain* | Wind** | Luminosity | Snow |
|---|---|---|---|---|---|---|---|
| 1787528723 | 20.56° C | 70% | 1014 hPa | 0 mm | - | 12 W/m² | - |
| 1787528422 | 20.56° C | 66% | 1013.9 hPa | 0 mm | - | 16 W/m² | - |
| 1787528118 | 21.11° C | 65% | 1013.8 hPa | 0 mm | - | 20 W/m² | - |
| 1787527815 | 21.11° C | 64% | 1013.8 hPa | 0 mm | - | 25 W/m² | - |
| 1787527510 | 21.67° C | 61% | 1013.9 hPa | 0 mm | - | 30 W/m² | - |
| 1787527205 | 21.67° C | 59% | 1013.8 hPa | 0 mm | - | 35 W/m² | - |
| 1787526902 | 21.67° C | 59% | 1013.9 hPa | 0 mm | - | 46 W/m² | - |
| 1787526596 | 22.22° C | 58% | 1013.8 hPa | 0 mm | - | 55 W/m² | - |
| 1787526293 | 21.67° C | 59% | 1014 hPa | 0 mm | - | 55 W/m² | - |
| 1787525989 | 21.67° C | 58% | 1014.1 hPa | 0 mm | - | 46 W/m² | - |
| 1787525684 | 21.67° C | 58% | 1014 hPa | 0 mm | - | 38 W/m² | - |
| 1787525378 | 21.67° C | 57% | 1014.2 hPa | 0 mm | - | 40 W/m² | - |
| 1787525075 | 22.22° C | 55% | 1014.1 hPa | 0 mm | - | 48 W/m² | - |
| 1787524774 | 22.78° C | 54% | 1014.4 hPa | 0 mm | - | 64 W/m² | - |
| 1787524471 | 22.78° C | 53% | 1014.1 hPa | 0 mm | - | 73 W/m² | - |
| 1787524165 | 22.78° C | 52% | 1014 hPa | 0 mm | - | 81 W/m² | - |
| 1787523860 | 23.33° C | 51% | 1014.3 hPa | 0 mm | - | 87 W/m² | - |
| 1787523555 | 23.33° C | 52% | 1014.2 hPa | 0 mm | - | 94 W/m² | - |
| 1787523250 | 23.33° C | 52% | 1014 hPa | 0 mm | - | 105 W/m² | - |
| 1787522946 | 23.33° C | 51% | 1014.3 hPa | 0 mm | - | 117 W/m² | - |
| 1787522642 | 23.33° C | 51% | 1014.1 hPa | 0 mm | - | 126 W/m² | - |
| 1787522336 | 22.78° C | 52% | 1014 hPa | 0 mm | - | 139 W/m² | - |
| 1787522032 | 22.78° C | 52% | 1014.2 hPa | 0 mm | - | 155 W/m² | - |
| 1787521730 | 23.33° C | 50% | 1014.1 hPa | 0 mm | - | 178 W/m² | - |
| 1787521425 | 22.78° C | 51% | 1013.9 hPa | 0 mm | - | 174 W/m² | - |
* Rain latest hour (hover to see other rain measurements)
** Current wind speed in m/s (hover to see current wind gust speed)